When you browse on this site, cookies collect data to enhance your experience and personalize the content and advertising you see.
Visit our Privacy Policy to learn more. By continuing to use the site, you agree to this use of cookies and data.
  • In Romania
  • List of Countries
  • For 7 days
  • Water Temperature
  • Weather Map
  • Weather Widgets
  • user-avatar
    Login

    Hourly Weather Swansea

    Today, 26 February, Wednesday

    Time Temperature Precipitation Wind Pressure Humidity
    00:00 -2°C° 0 mm 10 mps 748 mmHg 86%
    01:00 -2°C° 0.2 mm 10 mps 749 mmHg 85%
    02:00 -1°C° 0.2 mm 11 mps 749 mmHg 84%
    03:00 -1°C° 0.2 mm 11 mps 749 mmHg 83%
    04:00 -1°C° 0 mm 11 mps 750 mmHg 82%
    05:00 0°C° 0 mm 10 mps 751 mmHg 80%
    06:00 0°C° 0 mm 10 mps 751 mmHg 83%
    07:00 0°C° 0 mm 10 mps 752 mmHg 82%
    08:00 +1°C° 0 mm 10 mps 753 mmHg 80%
    09:00 +1°C° 0 mm 10 mps 753 mmHg 78%
    10:00 +2°C° 0.1 mm 10 mps 754 mmHg 75%
    11:00 +3°C° 0.1 mm 9 mps 754 mmHg 71%
    12:00 +3°C° 0.1 mm 9 mps 755 mmHg 68%
    13:00 +4°C° 0 mm 8 mps 755 mmHg 67%
    14:00 +4°C° 0 mm 8 mps 755 mmHg 67%
    15:00 +4°C° 0 mm 7 mps 755 mmHg 66%
    16:00 +3°C° 0 mm 6 mps 755 mmHg 70%
    17:00 +2°C° 0 mm 6 mps 755 mmHg 75%
    18:00 +2°C° 0 mm 5 mps 754 mmHg 79%
    19:00 +1°C° 0 mm 5 mps 754 mmHg 80%
    20:00 +1°C° 0 mm 4 mps 754 mmHg 81%
    21:00 +1°C° 0 mm 4 mps 754 mmHg 82%
    22:00 +2°C° 0.1 mm 5 mps 753 mmHg 84%
    23:00 +2°C° 0.1 mm 5 mps 751 mmHg 87%

    Tomorrow, 27 February, Thursday

    Time Temperature Precipitation Wind Pressure Humidity
    00:00 +2°C° 0.1 mm 6 mps 750 mmHg 90%
    01:00 +2°C° 0.9 mm 5 mps 749 mmHg 92%
    02:00 +2°C° 0.9 mm 5 mps 747 mmHg 95%
    03:00 +1°C° 0.9 mm 5 mps 745 mmHg 97%
    04:00 +1°C° 1.7 mm 5 mps 744 mmHg 97%
    05:00 +1°C° 1.7 mm 6 mps 743 mmHg 97%
    06:00 0°C° 1.7 mm 7 mps 742 mmHg 97%
    07:00 0°C° 0.3 mm 7 mps 743 mmHg 96%
    08:00 0°C° 0.3 mm 8 mps 744 mmHg 95%
    09:00 0°C° 0.3 mm 9 mps 745 mmHg 94%
    10:00 +1°C° 0 mm 9 mps 747 mmHg 90%
    11:00 +2°C° 0 mm 9 mps 749 mmHg 85%
    12:00 +2°C° 0 mm 9 mps 750 mmHg 81%
    13:00 +2°C° 0 mm 9 mps 751 mmHg 78%
    14:00 +2°C° 0 mm 9 mps 752 mmHg 75%
    15:00 +2°C° 0 mm 9 mps 753 mmHg 72%
    16:00 +2°C° 0 mm 7 mps 753 mmHg 75%
    17:00 +2°C° 0 mm 6 mps 754 mmHg 78%
    18:00 +1°C° 0 mm 5 mps 755 mmHg 81%
    19:00 0°C° 0 mm 5 mps 756 mmHg 81%
    20:00 0°C° 0 mm 4 mps 756 mmHg 82%
    21:00 0°C° 0 mm 4 mps 757 mmHg 82%
    22:00 +1°C° 0 mm 3 mps 757 mmHg 81%
    23:00 +1°C° 0 mm 3 mps 757 mmHg 81%

    Day after tomorrow, 28 February, Friday

    Time Temperature Precipitation Wind Pressure Humidity
    00:00 +2°C° 0 mm 2 mps 757 mmHg 80%
    01:00 +1°C° 0 mm 4 mps 757 mmHg 82%
    02:00 +1°C° 0 mm 5 mps 756 mmHg 84%
    03:00 +2°C° 0 mm 6 mps 756 mmHg 85%
    04:00 +2°C° 0.4 mm 6 mps 755 mmHg 88%
    05:00 0°C° 0.4 mm 7 mps 754 mmHg 91%
    06:00 0°C° 0.4 mm 8 mps 753 mmHg 94%
    07:00 +1°C° 1.4 mm 8 mps 752 mmHg 95%
    08:00 +1°C° 1.4 mm 9 mps 751 mmHg 95%
    09:00 +1°C° 1.4 mm 10 mps 750 mmHg 96%
    10:00 +2°C° 2.5 mm 9 mps 749 mmHg 97%
    11:00 +4°C° 2.5 mm 8 mps 748 mmHg 98%
    12:00 +5°C° 2.5 mm 7 mps 747 mmHg 98%
    13:00 +6°C° 1.6 mm 8 mps 746 mmHg 98%
    14:00 +7°C° 1.6 mm 9 mps 746 mmHg 98%
    15:00 +8°C° 1.6 mm 10 mps 745 mmHg 98%
    16:00 +8°C° 0.6 mm 10 mps 744 mmHg 97%
    17:00 +8°C° 0.6 mm 10 mps 744 mmHg 97%
    18:00 +8°C° 0.6 mm 10 mps 743 mmHg 97%
    19:00 +8°C° 1.7 mm 10 mps 742 mmHg 97%
    20:00 +8°C° 1.7 mm 10 mps 742 mmHg 97%
    21:00 +8°C° 1.7 mm 10 mps 741 mmHg 96%
    22:00 +8°C° 1.4 mm 11 mps 740 mmHg 96%
    23:00 +8°C° 1.4 mm 11 mps 739 mmHg 96%

    29 February, Saturday

    Time Temperature Precipitation Wind Pressure Humidity
    00:00 +8°C° 1.4 mm 11 mps 737 mmHg 95%
    01:00 +8°C° 1.1 mm 12 mps 736 mmHg 94%
    02:00 +8°C° 1.1 mm 12 mps 734 mmHg 94%
    03:00 +8°C° 1.1 mm 13 mps 733 mmHg 93%
    04:00 +7°C° 1.7 mm 13 mps 732 mmHg 93%
    05:00 +5°C° 1.7 mm 13 mps 731 mmHg 93%
    06:00 +4°C° 1.7 mm 14 mps 730 mmHg 93%
    07:00 +3°C° 0.3 mm 14 mps 730 mmHg 87%
    08:00 +3°C° 0.3 mm 14 mps 730 mmHg 81%
    09:00 +3°C° 0.3 mm 14 mps 730 mmHg 76%
    10:00 +2°C° 0.5 mm 17 mps 729 mmHg 80%
    11:00 +1°C° 0.5 mm 19 mps 728 mmHg 84%
    12:00 0°C° 0.5 mm 21 mps 728 mmHg 88%
    13:00 0°C° 1.2 mm 21 mps 728 mmHg 88%
    14:00 0°C° 1.2 mm 22 mps 728 mmHg 88%
    15:00 0°C° 1.2 mm 22 mps 727 mmHg 88%
    16:00 0°C° 0.5 mm 21 mps 729 mmHg 85%
    17:00 +1°C° 0.5 mm 19 mps 731 mmHg 82%
    18:00 +1°C° 0.5 mm 18 mps 733 mmHg 79%
    19:00 +1°C° 0.1 mm 17 mps 734 mmHg 75%
    20:00 0°C° 0.1 mm 16 mps 735 mmHg 72%
    21:00 0°C° 0.1 mm 15 mps 736 mmHg 68%
    22:00 0°C° 0.1 mm 15 mps 737 mmHg 68%
    23:00 -1°C° 0.1 mm 14 mps 738 mmHg 68%

    1 March, Sunday

    Time Temperature Precipitation Wind Pressure Humidity
    00:00 -1°C° 0.1 mm 14 mps 739 mmHg 69%
    01:00 -1°C° 0.1 mm 13 mps 739 mmHg 68%
    02:00 -1°C° 0.1 mm 12 mps 740 mmHg 68%
    03:00 -1°C° 0.1 mm 11 mps 740 mmHg 68%
    04:00 -1°C° 0.1 mm 11 mps 740 mmHg 69%
    05:00 0°C° 0.1 mm 10 mps 741 mmHg 71%
    06:00 -2°C° 0.1 mm 10 mps 741 mmHg 72%
    07:00 0°C° 0.1 mm 10 mps 741 mmHg 71%
    08:00 +1°C° 0.1 mm 10 mps 742 mmHg 70%
    09:00 +1°C° 0.1 mm 10 mps 742 mmHg 69%
    10:00 +2°C° 0.1 mm 10 mps 742 mmHg 68%
    11:00 +3°C° 0.1 mm 10 mps 742 mmHg 67%
    12:00 +3°C° 0.1 mm 10 mps 743 mmHg 67%
    13:00 +3°C° 0.1 mm 10 mps 743 mmHg 69%
    14:00 +5°C° 0.1 mm 9 mps 743 mmHg 72%
    15:00 +5°C° 0.1 mm 9 mps 743 mmHg 75%
    16:00 +4°C° 0.1 mm 8 mps 742 mmHg 78%
    17:00 +4°C° 0.1 mm 8 mps 742 mmHg 82%
    18:00 +3°C° 0.1 mm 7 mps 742 mmHg 85%
    19:00 +2°C° 0.5 mm 8 mps 741 mmHg 87%
    20:00 +4°C° 0.5 mm 8 mps 741 mmHg 89%
    21:00 +3°C° 0.5 mm 9 mps 740 mmHg 91%
    22:00 +3°C° 0.6 mm 9 mps 740 mmHg 90%
    23:00 +4°C° 0.6 mm 8 mps 740 mmHg 89%

    2 March, Monday

    Time Temperature Precipitation Wind Pressure Humidity
    00:00 +4°C° 0.6 mm 8 mps 740 mmHg 89%
    01:00 +3°C° 0.3 mm 7 mps 740 mmHg 89%
    02:00 +3°C° 0.3 mm 6 mps 740 mmHg 90%
    03:00 +2°C° 0.3 mm 6 mps 740 mmHg 90%
    04:00 +2°C° 0.1 mm 5 mps 740 mmHg 90%
    05:00 +1°C° 0.1 mm 5 mps 740 mmHg 91%
    06:00 +1°C° 0.1 mm 5 mps 741 mmHg 91%
    07:00 +1°C° 0 mm 5 mps 742 mmHg 89%
    08:00 +2°C° 0 mm 6 mps 742 mmHg 86%
    09:00 +3°C° 0 mm 6 mps 743 mmHg 84%
    10:00 +3°C° 0 mm 6 mps 744 mmHg 79%
    11:00 +4°C° 0 mm 6 mps 744 mmHg 74%
    12:00 +4°C° 0 mm 6 mps 745 mmHg 69%
    13:00 +4°C° 0.1 mm 7 mps 746 mmHg 68%
    14:00 +4°C° 0.1 mm 7 mps 746 mmHg 66%
    15:00 +4°C° 0.1 mm 7 mps 746 mmHg 65%
    16:00 +3°C° 0 mm 6 mps 747 mmHg 70%
    17:00 +2°C° 0 mm 6 mps 748 mmHg 76%
    18:00 +1°C° 0 mm 5 mps 748 mmHg 81%
    19:00 +1°C° 0 mm 5 mps 749 mmHg 83%
    20:00 +1°C° 0 mm 5 mps 750 mmHg 85%
    21:00 +1°C° 0 mm 5 mps 751 mmHg 88%
    22:00 +1°C° 0 mm 4 mps 752 mmHg 88%
    23:00 0°C° 0 mm 4 mps 752 mmHg 89%
    Show more